Regional Weather Roundup
Issued by NWS

Home | Current Version | Previous Version | Text Only | Print | Product List | Glossary Off
Versions: 1 2 3 4 5 6 7 8 9 10 11 12 13 14 15 16 17 18 19 20 21 22 23 24 25 26 27 28 29 30 31 32 33 34 35 36 37 38 39 40 41 42 43 44 45 46 47 48 49 50

000
ASUS43 KMPX 212310
RWRMN
WEATHER ROUNDUP FOR MINNESOTA
NATIONAL WEATHER SERVICE TWIN CITIES/CHANHASSEN MN
500 PM CST SUN DEC 21 2014


NOTE: "FAIR" INDICATES FEW OR NO CLOUDS BELOW 12,000 FEET WITH NO
SIGNIFICANT WEATHER AND/OR OBSTRUCTIONS TO VISIBILITY. N/A MEANS
CURRENT SKY AND/OR WEATHER CONDITIONS ARE NOT AVAILABLE.

MNZ060>063-068>070-220000-
   Twin Cities Metro

CITY           SKY/WX    TMP DP  RH WIND       PRES   REMARKS
TWIN CITIES    CLOUDY    36  35  96 SE9       29.75S FOG
ST PAUL        CLOUDY    36  35  96 SE12      29.76S FOG
CRYSTAL        CLOUDY    37  35  92 S9        29.72S FOG
BLAINE         DRIZZLE   37  37 100 SE9       29.73S
LAKEVILLE      CLOUDY    36  34  93 S8        29.74S FOG
EDEN PRAIRIE   CLOUDY    37  35  92 S12       29.73S FOG
SOUTH ST PAUL  CLOUDY    37  36  96 S7        29.75S FOG
LAKE ELMO      DRIZZLE   36  36 100 S14       29.76S
$$
MNZ001>005-007-008-013>017-022>024-027-028-220000-
   Northwest Minnesota

CITY           SKY/WX    TMP DP  RH WIND       PRES   REMARKS
BEMIDJI        CLOUDY    32  30  94 SE8       29.64S WCI  25
HALLOCK        CLOUDY    32  30  93 CALM      29.60S FOG
ROSEAU         CLOUDY    32  28  86 S10       29.64S WCI  24
WARROAD        CLOUDY    30  28  93 S8        29.65S WCI  23
THIEF RVR FALL CLOUDY    30  28  93 SE12      29.62F WCI  21
CROOKSTON      CLOUDY    32  30  93 S10       29.63R WCI  24
FOSSTON        CLOUDY    30  28  93 SE7       29.63S WCI  23
DETROIT LAKES  CLOUDY    32  32 100 SE13      29.62S FOG     WCI  22
MOORHEAD       CLOUDY    34  34 100 SE9       29.59F WCI  26
PARK RAPIDS    CLOUDY    33  31  92 SE12      29.64R FOG     WCI  24
MAHNOMEN       CLOUDY    32  30  93 SE8       29.61S WCI  25
$$
MNZ006-009>011-018-025>026-220000-
   North Central Minnesota

CITY           SKY/WX    TMP DP  RH WIND       PRES   REMARKS
BAUDETTE       CLOUDY    31  28  89 S6        29.66S WCI  25
FLAG ISLAND    CLOUDY    30  28  93 S15       29.65R FOG     WCI  19
INTL FALLS     CLOUDY    32  30  92 SE7       29.70R FOG     WCI  26
WASKISH        CLOUDY    32  30  93 CALM      29.67S
BIG FORK       MIX PCPN  34  30  86 S6        29.69S WCI  29
LONGVILLE      CLOUDY    32  32 100 SE6       29.67S FOG     WCI  26
GRAND RAPIDS   CLOUDY    32  30  93 SE7       29.69R WCI  26
CRANE LAKE     CLOUDY    30  28  93 SE3       29.74S
ORR            CLOUDY    30  28  93 SE6       29.69R WCI  24
COOK           CLOUDY    30  30 100 SE8       29.72S FOG     WCI  23
WALKER         CLOUDY    32  31  96 S7        29.66R WCI  26
$$
MNZ012-019>021-037-220000-
   Northeast Minnesota

CITY           SKY/WX    TMP DP  RH WIND       PRES   REMARKS
DULUTH         FOG       32  30  92 SE10      29.74R VSB 1/2 WCI  24
ELY            CLOUDY    30  28  93 S6        29.75R WCI  24
HIBBING        CLOUDY    33  30  88 SE9       29.71S FOG     WCI  25
EVELETH        CLOUDY    32  32 100 SE8       29.73S FOG     WCI  25
DULUTH HARBOR  CLOUDY    34  32  93 CALM      29.78S
TWO HARBORS    CLOUDY    36  30  80 E5        29.76F VSB 1/2
SILVER BAY     MIX PCPN  34  32  93 SE3       29.77S
GRAND MARAIS     N/A     34  33  96 SE7       29.85S WCI  28
G MARAIS ARPRT MIX PCPN  28  27  93 SE7       29.79S VSB 3/4 WCI  21
$$
MNZ029>031-032-039>041-046>048-054>057-064-220000-
   West Central Minnesota

CITY           SKY/WX    TMP DP  RH WIND       PRES   REMARKS
FERGUS FALLS   CLOUDY    34  32  93 SE10      29.63S WCI  26
WHEATON        CLOUDY    30  30 100 SE15      29.60S FOG     WCI  19
MORRIS         FOG       34  34 100 SE17      29.59S VSB 3/4 WCI  23
ALEXANDRIA     CLOUDY    33  32  96 SE13      29.63S FOG     WCI  24
ELBOW LAKE     CLOUDY    32  32 100 SE14      29.60S FOG     WCI  22
WADENA         CLOUDY    32  30  93 SE10      29.63S FOG     WCI  24
GLENWOOD       FOG       34  34 100 SE10G16   29.63S VSB 1   WCI  26
APPLETON       CLOUDY    36  34  93 SE14      29.59F
BENSON         CLOUDY    36  34  93 S13G18    29.61F FOG
ORTONVILLE     MOCLDY    34  30  86 SE10G16   29.57F FOG     WCI  26
MADISON        MOCLDY    37  36  93 SE12      29.58F FOG
WILLMAR        FOG       36  34  93 SE10      29.65F VSB 3/4
$$
MNZ033>034-036-042>043-049>051-058-059-220000-
   Central Minnesota

CITY           SKY/WX    TMP DP  RH WIND       PRES   REMARKS
ST CLOUD       CLOUDY    36  33  89 SE13      29.69R FOG
SAUK CENTRE    FOG       33  33 100 SE12      29.65S VSB 1/2 WCI  24
PAYNESVILLE    FOG       32  32 100 E7        29.66S VSB 1/2 WCI  26
AITKIN         CLOUDY    36  30  80 SE6       29.68S HAZE
PINE RIVER     CLOUDY    34  34 100 SE6       29.71R FOG     WCI  29
BRAINERD       CLOUDY    33  32  96 SE6       29.68S FOG     WCI  28
STAPLES        CLOUDY    32  32 100 SE6       29.66R FOG     WCI  26
LONG PRAIRIE   CLOUDY    32  32 100 SE9       29.66R FOG     WCI  24
LITTLE FALLS   CLOUDY    34  32  93 SE8       29.68S FOG     WCI  27
LITCHFIELD     FOG       36  36 100 SE8       29.68S VSB 1
BUFFALO        DRIZZLE   36  34  94 SE10      29.72R
MAPLE LAKE     CLOUDY    36  36  99 SE7       29.71R FOG
$$
MNZ037-044-045-052-053-220000-
   East Central Minnesota

CITY           SKY/WX    TMP DP  RH WIND       PRES   REMARKS
PRINCETON      CLOUDY    36  34  93 SE7       29.72R FOG
MORA           CLOUDY    32  32 100 SE5       29.74R WCI  27
CAMBRIDGE      MIX PCPN  36  28  75 SE3       29.71S
RUSH CITY      CLOUDY    33  32  96 SE8       29.74S WCI  26
MOOSE LAKE     CLOUDY    34  32  93 S5        29.72R WCI  30
HINCKLEY       CLOUDY    34  34 100 SE8       29.74R WCI  27
CLOQUET        CLOUDY    32  30  93 SE5       29.73S FOG     WCI  27
MCGREGOR       CLOUDY    34  32  93 SE8       29.71S WCI  27
$$
MNZ071>073-080-081-089-090-097-098-220000-
   Southwest Minnesota

CITY           SKY/WX    TMP DP  RH WIND       PRES   REMARKS
MONTEVIDEO     CLOUDY    36  36 100 S10       29.62F
GRANITE FALLS  CLOUDY    35  34  95 SE10      29.64F FOG     WCI  28
CANBY          CLOUDY    35  34  94 S9        29.59S FOG     WCI  28
MARSHALL       CLOUDY    37  34  87 S18       29.61S
REDWOOD FALLS  CLOUDY    36  36 100 SE13      29.65F FOG
OLIVIA         FOG       36  34  93 SE9       29.66S VSB 1/2
PIPESTONE      CLOUDY    36  36 100 S18       29.58S FOG
WINDOM         CLOUDY    37  37 100 S17G23    29.64F FOG
WORTHINGTON    CLOUDY    37 -11  12 S16G22    29.64S VSB 1
JACKSON        CLOUDY    37  36  93 S17G23    29.67S FOG
TRACY          CLOUDY    38  37  96 S12       29.62S FOG
SLAYTON        CLOUDY    36  36 100 S20G26    29.62S FOG
$$
MNZ065>067-074>077-082>085-091>093-220000-
   South Central Minnesota

CITY           SKY/WX    TMP DP  RH WIND       PRES   REMARKS
MANKATO        CLOUDY    37  34  87 S12       29.72S
NEW ULM        CLOUDY    36  36 100 S8        29.69S FOG
ST JAMES       CLOUDY    39  37  93 S14G21    29.69F FOG
FAIRMONT       CLOUDY    37  34  87 S18G24    29.69F
GLENCOE        CLOUDY    37  37 100 S8        29.70S FOG
FARIBAULT      CLOUDY    36  36 100 S8        29.74F FOG
OWATONNA       CLOUDY    37  36  93 S13G18    29.74S FOG
WASECA         CLOUDY    36  36 100 S15       29.75R FOG
ALBERT LEA     CLOUDY    37  37 100 S13G23    29.73F FOG
$$
MNZ078>079-086>088-094>096-220000-
   Southeast Minnesota

CITY           SKY/WX    TMP DP  RH WIND       PRES   REMARKS
ROCHESTER      CLOUDY    36  35  96 S21G29    29.77R
RED WING       CLOUDY    37  36  93 SE7       29.78S FOG
STANTON        CLOUDY    37  35  90 S9        29.74F FOG
DODGE CENTER   CLOUDY    36  36 100 S17G23    29.75S FOG
WINONA         CLOUDY    37  34  87 SE9       29.82S
AUSTIN         CLOUDY    37  36  93 S17G23    29.77R
PRESTON        CLOUDY    35  34  96 S23G32    29.77F FOG     WCI  23
$$
ABBREVIATIONS USED IN REMARKS
   TC - TEMPERATURES IN CELSIUS
  WCI - WIND CHILL INDEX
   HX - HEAT INDEX
  VSB - VISIBILITY
$$



USA.gov is the U.S. government's official web portal to all federal, state and local government web resources and services.